ASA3202 KSFO-KTVL

Flight info

Callsign ASA3202
Flight time 0h 31m
Altitude 21000
Route TRUKN2 ORRCA SWR
Aircraft B739/M-V/N

Departure

Time 2026-04-30 21:23
Airport San Francisco International Airport (KSFO)

Arrival

Time 2026-04-30 21:55
Airport Lake Tahoe Airport (KTVL)
Time Latitude Longitude Altitude Speed Heading
2026-04-30 21:04 37.61187 -122.38435 16 ft 0 kts 297°
2026-04-30 21:11 37.61183 -122.38426 16 ft 2 kts 298°
2026-04-30 21:12 37.61175 -122.38408 19 ft 2 kts 284°
2026-04-30 21:12 37.61183 -122.38395 17 ft 2 kts 207°
2026-04-30 21:12 37.61196 -122.38384 18 ft 2 kts 210°
2026-04-30 21:12 37.61207 -122.38376 18 ft 0 kts 210°
2026-04-30 21:14 37.61201 -122.38379 17 ft 6 kts 204°
2026-04-30 21:14 37.61139 -122.38350 17 ft 7 kts 150°
2026-04-30 21:15 37.61107 -122.38333 17 ft 7 kts 171°
2026-04-30 21:15 37.61031 -122.38387 20 ft 18 kts 212°
2026-04-30 21:15 37.60933 -122.38476 19 ft 17 kts 214°
2026-04-30 21:15 37.60821 -122.38498 17 ft 16 kts 179°
2026-04-30 21:16 37.60710 -122.38498 19 ft 16 kts 178°
2026-04-30 21:16 37.60629 -122.38408 19 ft 17 kts 130°
2026-04-30 21:16 37.60539 -122.38276 21 ft 21 kts 131°
2026-04-30 21:16 37.60508 -122.38104 21 ft 21 kts 79°
2026-04-30 21:17 37.60568 -122.37953 22 ft 20 kts 25°
2026-04-30 21:17 37.60689 -122.37875 23 ft 19 kts 28°
2026-04-30 21:17 37.60808 -122.37797 24 ft 19 kts 27°
2026-04-30 21:17 37.60921 -122.37721 19 ft 18 kts 28°
2026-04-30 21:18 37.61032 -122.37647 19 ft 18 kts 27°
2026-04-30 21:18 37.61137 -122.37578 20 ft 17 kts 27°
2026-04-30 21:18 37.61239 -122.37508 20 ft 16 kts 28°
2026-04-30 21:18 37.61338 -122.37444 21 ft 16 kts 27°
2026-04-30 21:19 37.61458 -122.37365 22 ft 24 kts 27°
2026-04-30 21:19 37.61556 -122.37220 23 ft 23 kts 73°
2026-04-30 21:19 37.61522 -122.37040 22 ft 22 kts 120°
2026-04-30 21:19 37.61433 -122.36883 20 ft 21 kts 130°
2026-04-30 21:20 37.61348 -122.36736 17 ft 21 kts 112°
2026-04-30 21:20 37.61280 -122.36573 16 ft 23 kts 119°
2026-04-30 21:20 37.61194 -122.36370 17 ft 26 kts 118°
2026-04-30 21:20 37.61118 -122.36190 16 ft 4 kts 118°
2026-04-30 21:21 37.61105 -122.36160 17 ft 4 kts 118°
2026-04-30 21:21 37.61105 -122.36111 20 ft 12 kts 59°
2026-04-30 21:21 37.61265 -122.36063 14 ft 14 kts 294°
2026-04-30 21:22 37.61277 -122.36092 16 ft 0 kts 297°
2026-04-30 21:22 37.61342 -122.36250 13 ft 55 kts 298°
2026-04-30 21:23 37.61632 -122.36937 22 ft 119 kts 298°
2026-04-30 21:23 37.62092 -122.38000 310 ft 142 kts 299°
2026-04-30 21:23 37.63069 -122.40298 1699 ft 168 kts 314°
2026-04-30 21:24 37.64104 -122.41214 2060 ft 198 kts 332°
2026-04-30 21:24 37.65500 -122.41801 2391 ft 224 kts 352°
2026-04-30 21:24 37.67092 -122.41681 2872 ft 242 kts 16°
2026-04-30 21:24 37.68626 -122.40654 3413 ft 257 kts 41°
2026-04-30 21:25 37.70076 -122.36575 4478 ft 268 kts 81°
2026-04-30 21:25 37.70334 -122.34252 5042 ft 270 kts 82°
2026-04-30 21:25 37.70587 -122.31870 5572 ft 274 kts 82°
2026-04-30 21:26 37.71115 -122.27096 6615 ft 278 kts 82°
2026-04-30 21:26 37.71391 -122.24668 7120 ft 279 kts 81°
2026-04-30 21:27 37.72966 -122.20320 8119 ft 278 kts 40°
2026-04-30 21:27 37.74507 -122.18842 8657 ft 285 kts 35°
2026-04-30 21:27 37.76144 -122.17399 9617 ft 284 kts 35°
2026-04-30 21:28 37.79474 -122.14464 10881 ft 309 kts 34°
2026-04-30 21:28 37.81290 -122.12843 11042 ft 335 kts 34°
2026-04-30 21:28 37.85275 -122.09250 11936 ft 361 kts 34°
2026-04-30 21:29 37.87335 -122.07384 12643 ft 366 kts 34°
2026-04-30 21:29 37.93678 -122.01627 14642 ft 378 kts 33°
2026-04-30 21:30 37.97982 -121.97722 15911 ft 385 kts 33°
2026-04-30 21:31 38.04589 -121.91715 17728 ft 395 kts 33°
2026-04-30 21:31 38.09075 -121.87627 18798 ft 402 kts 33°
2026-04-30 21:32 38.13680 -121.83423 19808 ft 409 kts 33°
2026-04-30 21:32 38.15959 -121.81341 20299 ft 413 kts 32°
2026-04-30 21:32 38.18304 -121.79196 20805 ft 417 kts 32°
2026-04-30 21:32 38.20682 -121.77020 20962 ft 425 kts 32°
2026-04-30 21:33 38.23113 -121.74794 20975 ft 433 kts 32°
2026-04-30 21:33 38.28010 -121.70300 20969 ft 433 kts 33°
2026-04-30 21:33 38.30450 -121.68054 20973 ft 430 kts 33°
2026-04-30 21:34 38.32887 -121.65812 20969 ft 429 kts 32°
2026-04-30 21:34 38.37707 -121.61376 20974 ft 429 kts 32°
2026-04-30 21:34 38.40141 -121.59134 20976 ft 430 kts 33°
2026-04-30 21:35 38.42570 -121.56894 20975 ft 432 kts 33°
2026-04-30 21:35 38.44933 -121.54478 20957 ft 437 kts 44°
2026-04-30 21:35 38.46787 -121.51433 21003 ft 441 kts 51°
2026-04-30 21:35 38.48598 -121.48230 20975 ft 442 kts 51°
2026-04-30 21:36 38.50384 -121.45085 20976 ft 442 kts 51°
2026-04-30 21:36 38.52209 -121.41895 20971 ft 442 kts 50°
2026-04-30 21:37 38.57673 -121.32453 20960 ft 441 kts 50°
2026-04-30 21:37 38.59487 -121.29332 20959 ft 441 kts 50°
2026-04-30 21:37 38.61307 -121.26199 20960 ft 440 kts 50°
2026-04-30 21:37 38.63138 -121.23047 20973 ft 440 kts 50°
2026-04-30 21:38 38.64946 -121.19928 20966 ft 440 kts 50°
2026-04-30 21:38 38.66771 -121.16776 20969 ft 440 kts 50°
2026-04-30 21:38 38.68599 -121.13616 20981 ft 440 kts 50°
2026-04-30 21:38 38.70425 -121.10456 20993 ft 440 kts 50°
2026-04-30 21:39 38.72230 -121.07330 20988 ft 440 kts 50°
2026-04-30 21:39 38.74057 -121.04161 20993 ft 440 kts 50°
2026-04-30 21:39 38.75882 -121.00995 20999 ft 441 kts 50°
2026-04-30 21:39 38.77713 -120.97813 21008 ft 441 kts 50°
2026-04-30 21:40 38.79512 -120.94684 21012 ft 441 kts 50°
2026-04-30 21:40 38.81338 -120.91505 21049 ft 441 kts 50°
2026-04-30 21:40 38.83164 -120.88326 21043 ft 441 kts 50°
2026-04-30 21:40 38.84963 -120.85187 21051 ft 441 kts 50°
2026-04-30 21:41 38.86783 -120.82007 21036 ft 440 kts 50°
2026-04-30 21:41 38.88588 -120.78849 20764 ft 429 kts 50°
2026-04-30 21:41 38.90306 -120.75837 20510 ft 417 kts 50°
2026-04-30 21:41 38.91996 -120.72873 20262 ft 406 kts 50°
2026-04-30 21:42 38.93642 -120.69988 20017 ft 405 kts 50°
2026-04-30 21:42 38.95298 -120.67088 19777 ft 406 kts 50°
2026-04-30 21:42 38.96972 -120.64152 19525 ft 405 kts 51°
2026-04-30 21:42 38.98639 -120.61226 19287 ft 403 kts 51°
2026-04-30 21:43 39.00268 -120.58359 19087 ft 400 kts 51°
2026-04-30 21:43 39.01904 -120.55476 18849 ft 399 kts 51°
2026-04-30 21:43 39.03542 -120.52590 18629 ft 398 kts 51°
2026-04-30 21:43 39.05188 -120.49700 18403 ft 397 kts 51°
2026-04-30 21:44 39.06786 -120.46878 18146 ft 395 kts 51°
2026-04-30 21:44 39.08409 -120.44008 17886 ft 394 kts 51°
2026-04-30 21:44 39.10015 -120.41163 17607 ft 387 kts 51°
2026-04-30 21:44 39.11554 -120.38432 17383 ft 372 kts 51°
2026-04-30 21:45 39.13020 -120.35833 17106 ft 353 kts 51°
2026-04-30 21:45 39.14437 -120.33320 16854 ft 336 kts 51°
2026-04-30 21:45 39.15780 -120.30941 16620 ft 329 kts 51°
2026-04-30 21:45 39.17110 -120.28582 16384 ft 323 kts 51°
2026-04-30 21:46 39.18246 -120.26094 16100 ft 321 kts 69°
2026-04-30 21:46 39.18826 -120.23354 15910 ft 316 kts 73°
2026-04-30 21:46 39.19350 -120.20657 15647 ft 312 kts 73°
2026-04-30 21:46 39.19887 -120.17982 15274 ft 309 kts 72°
2026-04-30 21:47 39.20418 -120.15315 14942 ft 300 kts 72°
2026-04-30 21:47 39.20934 -120.12787 14604 ft 285 kts 72°
2026-04-30 21:47 39.21414 -120.10392 14270 ft 271 kts 73°
2026-04-30 21:47 39.21896 -120.08074 13891 ft 261 kts 73°
2026-04-30 21:48 39.22368 -120.05856 13474 ft 251 kts 71°
2026-04-30 21:48 39.22818 -120.03740 13075 ft 243 kts 73°
2026-04-30 21:48 39.23214 -120.01627 12667 ft 241 kts 84°
2026-04-30 21:48 39.22927 -119.99518 12247 ft 242 kts 115°
2026-04-30 21:49 39.21848 -119.97905 11877 ft 244 kts 145°
2026-04-30 21:49 39.20331 -119.96914 11537 ft 242 kts 154°
2026-04-30 21:49 39.18799 -119.95989 11162 ft 242 kts 153°
2026-04-30 21:49 39.17264 -119.95082 10806 ft 241 kts 156°
2026-04-30 21:50 39.15638 -119.94765 10424 ft 243 kts 188°
2026-04-30 21:50 39.13986 -119.95143 10090 ft 239 kts 187°
2026-04-30 21:50 39.12346 -119.95409 9970 ft 238 kts 186°
2026-04-30 21:50 39.10687 -119.95705 9928 ft 238 kts 185°
2026-04-30 21:51 39.09072 -119.95948 9865 ft 229 kts 185°
2026-04-30 21:51 39.07537 -119.96190 9548 ft 217 kts 186°
2026-04-30 21:51 39.06069 -119.96434 9309 ft 212 kts 185°
2026-04-30 21:51 39.04613 -119.96678 9047 ft 212 kts 185°
2026-04-30 21:52 39.03157 -119.96922 8771 ft 210 kts 186°
2026-04-30 21:52 39.01728 -119.97161 8543 ft 200 kts 186°
2026-04-30 21:52 39.00393 -119.97384 8234 ft 191 kts 185°
2026-04-30 21:52 38.99091 -119.97603 8169 ft 185 kts 186°
2026-04-30 21:53 38.97820 -119.97804 8111 ft 181 kts 186°
2026-04-30 21:53 38.96611 -119.98034 7938 ft 169 kts 188°
2026-04-30 21:53 38.95437 -119.98245 7608 ft 172 kts 182°
2026-04-30 21:53 38.94246 -119.98343 7308 ft 172 kts 179°
2026-04-30 21:54 38.93069 -119.98413 7036 ft 167 kts 188°
2026-04-30 21:54 38.91938 -119.98808 6844 ft 174 kts 193°
2026-04-30 21:54 38.90751 -119.99107 6460 ft 177 kts 193°
2026-04-30 21:54 38.89626 -119.99460 6267 ft 137 kts 199°
2026-04-30 21:55 38.88813 -119.99697 6265 ft 108 kts 193°
2026-04-30 21:55 38.88382 -119.99831 6265 ft 6 kts 193°
2026-04-30 21:55 38.88338 -119.99844 6265 ft 7 kts 193°
2026-04-30 21:55 38.88292 -119.99860 6265 ft 7 kts 206°
2026-04-30 21:56 38.88269 -119.99912 6265 ft 7 kts 269°
2026-04-30 21:56 38.88299 -119.99954 6265 ft 7 kts 352°
2026-04-30 21:56 38.88345 -119.99944 6266 ft 7 kts 12°
2026-04-30 21:56 38.88390 -119.99931 6265 ft 7 kts 13°
2026-04-30 21:57 38.88473 -119.99907 6264 ft 17 kts 13°
2026-04-30 21:57 38.88589 -119.99873 6263 ft 17 kts 12°
2026-04-30 21:57 38.88701 -119.99840 6264 ft 16 kts 13°
2026-04-30 21:57 38.88807 -119.99807 6265 ft 15 kts 13°
2026-04-30 21:58 38.88911 -119.99778 6268 ft 15 kts 12°
2026-04-30 21:58 38.89008 -119.99748 6269 ft 14 kts 12°
2026-04-30 21:58 38.89103 -119.99721 6267 ft 14 kts 13°
2026-04-30 21:58 38.89194 -119.99695 6266 ft 13 kts 12°
2026-04-30 21:59 38.89244 -119.99716 6269 ft 1 kts 282°
2026-04-30 21:59 38.89244 -119.99724 6269 ft 1 kts 271°
2026-04-30 21:59 38.89243 -119.99750 6269 ft 6 kts 253°
2026-04-30 22:00 38.89269 -119.99787 6269 ft 0 kts 15°